Regional Weather Roundup
Issued by NWS Green Bay, WI

Home | Current Version | Previous Version | Text Only | Print | Product List | Glossary On
Versions: 1 2 3 4 5 6 7 8 9 10 11 12 13 14 15 16 17 18 19 20 21 22 23 24 25 26 27 28 29 30 31 32 33 34 35 36 37 38 39 40 41 42 43 44 45 46 47 48 49 50
000
ASUS43 KGRB 250911
RWRGRB

NORTH-CENTRAL AND NORTHEAST WISCONSIN REGIONAL WEATHER ROUNDUP
NATIONAL WEATHER SERVICE GREEN BAY WI
400 AM CDT WED MAY 25 2016

WIZ005-009-010>012-018-019-251000-
NORTH CENTRAL WISCONSIN

CITY           SKY/WX    TMP DP  RH WIND       PRES   REMARKS
IRONWOOD       CLOUDY    54  52  94 CALM      30.00S VSB 1/2
MANITOWISH WTR NOT AVBL
ARBOR VITAE    FOG       57  56  96 CALM      30.03R VSB 1/4
EAGLE RIVER    FOG       58  58 100 CALM      30.03R VSB 1/2
LAND O LAKES   CLOUDY    57  57 100 CALM      30.05R FOG
RHINELANDER    FOG       54  53  97 CALM      30.03R VSB 1/4
PHILLIPS       FOG       49  49 100 CALM      30.01S VSB 1/2
ANTIGO         CLEAR     50  50  99 NE3       30.02R FOG
TOMAHAWK       FOG       49  48  97 CALM      30.02S VSB 1/4
MERRILL        CLEAR     51  51 100 CALM      30.01R FOG
$$

WIZ013-073-251000-
NORTHEAST WISCONSIN

CITY           SKY/WX    TMP DP  RH WIND       PRES   REMARKS
IRON MOUNTAIN  CLOUDY    55  52  89 N3        30.02R
MARINETTE      CLOUDY    55  55 100 E3        30.02R
OCONTO         CLOUDY   N/A N/A N/A NE8       30.00S
$$

WIZ017-030-035>037-045-251000-
CENTRAL WISCONSIN

CITY           SKY/WX    TMP DP  RH WIND       PRES   REMARKS
MEDFORD        CLOUDY    55  55 100 E6        29.99F
WAUSAU         CLEAR     59  55  87 CALM      29.98S
MOSINEE        CLOUDY    59  55  88 N5        30.01S
MARSHFIELD     CLOUDY    60  56  86 CALM      29.98S
WISC RAPIDS    FOG       55  53  93 CALM      29.99F VSB 1/2
STEVENS POINT  CLOUDY    52  50  95 CALM      29.99F
WAUPACA        CLEAR     57  56  97 N3        29.98F
SHAWANO        CLEAR     62  59  91 E6        30.00R
CLINTONVILLE   CLEAR     55  54  94 NE5       30.00R
WAUTOMA        CLEAR     56  55  97 CALM      29.98
$$

WIZ038-039-048-051-251000-
FOX VALLEY

CITY           SKY/WX    TMP DP  RH WIND       PRES   REMARKS
NWS GREEN BAY  CLOUDY    60  57  89 NE13      29.99R
APPLETON       CLEAR     61  52  72 CALM      29.97S
OSHKOSH        CLEAR     60  56  86 CALM      29.98R
FOND DU LAC    CLEAR     57  55  93 CALM      29.98R
$$

WIZ022-050-052-251000-
EAST CENTRAL WISCONSIN

CITY           SKY/WX    TMP DP  RH WIND       PRES   REMARKS
EPHRAIM        FOG       53  53  99 N9        30.01R VSB 1/4
STURGEON BAY   NOT AVBL
MANITOWOC      CLEAR     56  55  97 CALM      29.98R
SHEBOYGAN      CLEAR     56  54  93 CALM      29.97F FOG
$$

LMZ563-521-522-541>543-251000-
LAKESHORE

STATION/POSITION TIME  TEMP    WIND        PRES    VSBY  WAVE
                       AIR SEA DIR/SP/G                  HT/PER
                 (UTC) (F)     (DEG/KT/KT) (MB)    (MI)  (FT/S)
SHEBOYGAN LKSHOR 0900   62     200/  2/  3 1015.3R
KEWAUNEE LKSHORE 0800   51      20/  8/ 11 1014.3R
ALGOMA MARINA    0832           70/ 10/ 12   N/A
NORTHPORT PIER   0800   54     350/  7/  8 1015.9R
N MID LAKE BUOY  0850   49 44   30/  6/  6 1016.0R         1/ 5
SISTER BAY LKSHO 0835   54      20/  9/ 12   N/A
CHAMBERS ISLAND  0800   55      20/ 12/ 15 1015.9R
MENOMINEE LKSHOR 0800   54      20/ 10/ 12 1014.6R
$$




USA.gov is the U.S. government's official web portal to all federal, state and local government web resources and services.